OK3MS-5 Weather Reports


time (UTC)temp
C
wind
direction
speed
KPH
gust
KPH
rain 1hr
cm
rain 24hr
cm
rain mn
cm
humidity
%
barometer
mb
20260507151502 17 282 1.6 9.7 0.00 0.00 0.00 51 1010.7
20260507151008 16 258 1.6 4.8 0.00 0.00 0.00 52 1010.6
20260507150507 16 258 1.6 4.8 0.00 0.00 0.00 53 1010.7
20260507150012 16 255 1.6 3.2 0.00 0.00 0.00 53 1010.7
20260507145503 17 276 3.2 12.9 0.00 0.00 0.00 51 1010.4
20260507145003 18 254 6.4 8.0 0.00 0.00 0.00 48 1010.3
20260507144505 17 209 1.6 1.6 0.00 0.00 0.00 47 1010.4
20260507144005 17 209 0.0 9.7 0.00 0.00 0.00 51 1010.6
20260507143505 17 207 3.2 12.9 0.00 0.00 0.00 49 1010.7
20260507143003 17 252 0.0 9.7 0.00 0.00 0.00 50 1010.5
20260507142502 16 264 14.5 16.1 0.00 0.00 0.00 52 1010.7
20260507142004 16 258 1.6 9.7 0.00 0.00 0.00 52 1010.7
20260507141509 17 248 1.6 11.3 0.00 0.00 0.00 50 1010.6
20260507141002 17 222 3.2 4.8 0.00 0.00 0.00 50 1010.6
20260507140502 17 304 1.6 14.5 0.00 0.00 0.00 49 1010.5
20260507140003 16 264 3.2 12.9 0.00 0.00 0.00 49 1010.7
20260507135505 17 274 14.5 14.5 0.00 0.00 0.00 49 1010.6
20260507135004 17 271 4.8 19.3 0.00 0.00 0.00 48 1010.6
20260507134505 17 240 3.2 14.5 0.00 0.00 0.00 51 1010.7
20260507134004 17 241 1.6 17.7 0.00 0.00 0.00 52 1010.8
20260507133511 16 270 3.2 9.7 0.00 0.00 0.00 52 1010.8
20260507133003 16 228 8.0 11.3 0.00 0.00 0.00 53 1011.0
20260507132505 17 246 1.6 11.3 0.00 0.00 0.00 52 1010.9
20260507132004 17 227 1.6 12.9 0.00 0.00 0.00 51 1011.0
20260507131503 16 283 1.6 4.8 0.00 0.00 0.00 54 1010.9
20260507131006 16 246 4.8 17.7 0.00 0.00 0.00 53 1011.1
20260507130504 17 300 3.2 17.7 0.00 0.00 0.00 51 1010.9
20260507130005 17 306 9.7 12.9 0.00 0.00 0.00 53 1010.9
20260507125504 17 306 14.5 17.7 0.00 0.00 0.00 52 1010.8
20260507125002 16 240 3.2 9.7 0.00 0.00 0.00 56 1010.8
20260507124504 16 282 3.2 19.3 0.00 0.00 0.00 56 1011.0
20260507124005 16 264 6.4 14.5 0.00 0.00 0.00 59 1011.1
20260507123505 16 311 9.7 14.5 0.00 0.00 0.00 58 1011.2
20260507123003 17 216 12.9 14.5 0.00 0.00 0.00 54 1010.8
20260507122504 16 229 4.8 19.3 0.00 0.00 0.00 56 1011.0
20260507122004 16 230 4.8 14.5 0.00 0.00 0.00 55 1011.0
20260507121504 16 247 9.7 12.9 0.00 0.00 0.00 58 1011.1
20260507121004 16 272 4.8 16.1 0.00 0.00 0.00 58 1011.0
20260507120505 16 292 9.7 19.3 0.00 0.00 0.00 55 1011.0
20260507120004 17 252 9.7 16.1 0.00 0.00 0.00 54 1010.7
20260507115505 17 252 9.7 14.5 0.00 0.00 0.00 54 1010.6
20260507115003 17 288 1.6 14.5 0.00 0.00 0.00 54 1010.5
20260507114504 17 192 1.6 11.3 0.00 0.00 0.00 52 1010.6
20260507114004 16 276 1.6 14.5 0.00 0.00 0.00 56 1010.6
20260507113504 17 264 1.6 14.5 0.00 0.00 0.00 55 1010.5
20260507113005 17 229 16.1 20.9 0.00 0.00 0.00 53 1010.6
20260507112503 17 258 4.8 17.7 0.00 0.00 0.00 54 1010.5
20260507112005 16 299 3.2 12.9 0.00 0.00 0.00 55 1010.6
20260507111503 16 288 9.7 11.3 0.00 0.00 0.00 56 1010.8
20260507111003 16 269 3.2 8.0 0.00 0.00 0.00 58 1010.7
20260507110505 16 292 9.7 14.5 0.00 0.00 0.00 55 1010.7
20260507110005 16 276 3.2 14.5 0.00 0.00 0.00 57 1010.7
20260507105503 16 271 9.7 16.1 0.00 0.00 0.00 58 1010.8
20260507105002 16 258 11.3 19.3 0.00 0.00 0.00 57 1010.8
20260507104502 16 228 3.2 12.9 0.00 0.00 0.00 56 1010.7
20260507104005 17 272 14.5 16.1 0.00 0.00 0.00 55 1010.7
20260507103503 16 306 8.0 9.7 0.00 0.00 0.00 55 1010.6
20260507103003 16 304 1.6 20.9 0.00 0.00 0.00 57 1010.8
20260507102505 16 282 8.0 9.7 0.00 0.00 0.00 56 1010.7
20260507102004 16 281 9.7 14.5 0.00 0.00 0.00 54 1010.8
20260507101503 16 269 3.2 16.1 0.00 0.00 0.00 56 1010.7
20260507101003 16 294 0.0 12.9 0.00 0.00 0.00 57 1010.6
20260507100505 16 192 9.7 14.5 0.00 0.00 0.00 58 1010.9
20260507100003 16 232 11.3 17.7 0.00 0.00 0.00 57 1010.7
20260507095503 16 225 8.0 14.5 0.00 0.00 0.00 57 1010.6
20260507095002 16 210 3.2 20.9 0.00 0.00 0.00 56 1010.6
20260507094502 16 258 8.0 14.5 0.00 0.00 0.00 55 1010.8
20260507094004 16 232 9.7 20.9 0.00 0.00 0.00 57 1010.6
20260507093505 15 244 4.8 12.9 0.00 0.00 0.00 57 1010.7
20260507093004 15 245 8.0 12.9 0.00 0.00 0.00 60 1010.9
20260507092502 15 266 1.6 11.3 0.00 0.00 0.00 59 1010.8
20260507092002 15 126 9.7 11.3 0.00 0.00 0.00 57 1010.7
20260507091505 15 258 3.2 17.7 0.00 0.00 0.00 59 1010.7
20260507091004 15 258 6.4 14.5 0.00 0.00 0.00 59 1010.6
20260507090506 15 258 11.3 11.3 0.00 0.00 0.00 58 1010.6
20260507090004 15 260 0.0 17.7 0.00 0.00 0.00 61 1010.7
20260507085504 14 280 8.0 17.7 0.00 0.00 0.00 61 1010.7
20260507085006 14 286 11.3 14.5 0.00 0.00 0.00 60 1010.7
20260507084503 13 204 3.2 24.1 0.00 0.00 0.00 62 1010.7
20260507084005 14 276 8.0 14.5 0.00 0.00 0.00 61 1010.6
20260507083505 15 274 11.3 11.3 0.00 0.00 0.00 60 1010.5
20260507083003 14 252 6.4 9.7 0.00 0.00 0.00 61 1010.5
20260507082504 14 147 4.8 17.7 0.00 0.00 0.00 63 1010.6
20260507082004 14 210 4.8 11.3 0.00 0.00 0.00 65 1010.5
20260507081503 13 270 0.0 11.3 0.00 0.00 0.00 65 1010.5
20260507081002 13 254 12.9 20.9 0.00 0.00 0.00 66 1010.5
20260507080505 13 258 3.2 19.3 0.00 0.00 0.00 66 1010.5
20260507080005 13 240 14.5 16.1 0.00 0.00 0.00 65 1010.6
20260507075503 13 246 17.7 19.3 0.00 0.00 0.00 67 1010.6
20260507075003 13 268 3.2 16.1 0.00 0.00 0.00 69 1010.6
20260507074503 13 218 3.2 20.9 0.00 0.00 0.00 68 1010.5
20260507074002 13 318 8.0 11.3 0.00 0.00 0.00 70 1010.5
20260507073503 13 259 11.3 12.9 0.00 0.00 0.00 69 1010.5
20260507073004 13 271 9.7 14.5 0.00 0.00 0.00 70 1010.5
20260507072503 13 265 3.2 11.3 0.00 0.00 0.00 72 1010.6
20260507072003 12 160 12.9 12.9 0.00 0.00 0.00 73 1010.7
20260507071504 12 239 3.2 9.7 0.00 0.00 0.00 73 1010.6
20260507071003 12 299 6.4 20.9 0.00 0.00 0.00 72 1010.8
20260507070505 13 132 3.2 12.9 0.00 0.00 0.00 72 1010.6
20260507070008 13 195 3.2 11.3 0.00 0.00 0.00 71 1010.5
20260507065504 12 253 6.4 11.3 0.00 0.00 0.00 72 1010.7
20260507065004 12 302 4.8 9.7 0.00 0.00 0.00 73 1010.7
20260507064504 12 213 11.3 14.5 0.00 0.00 0.00 74 1010.7
20260507064003 12 216 1.6 14.5 0.00 0.00 0.00 75 1010.7
20260507063504 12 78 1.6 9.7 0.00 0.00 0.00 77 1010.8
20260507063004 12 222 1.6 11.3 0.00 0.00 0.00 77 1010.8
20260507062503 12 264 4.8 14.5 0.00 0.00 0.00 79 1010.7
20260507062004 12 234 1.6 3.2 0.00 0.00 0.00 79 1010.8
20260507061506 11 219 1.6 14.5 0.00 0.00 0.00 80 1010.8
20260507061004 12 210 0.0 9.7 0.00 0.00 0.00 81 1010.6
20260507060504 11 228 1.6 4.8 0.00 0.00 0.00 81 1010.7
20260507060003 11 166 0.0 8.0 0.00 0.00 0.00 83 1010.7
20260507055504 11 204 6.4 8.0 0.00 0.00 0.00 83 1010.6
20260507055004 11 162 4.8 17.7 0.00 0.00 0.00 83 1010.5
20260507054502 11 174 9.7 12.9 0.00 0.00 0.00 83 1010.5
20260507054003 11 216 3.2 9.7 0.00 0.00 0.00 84 1010.4
20260507053509 10 204 3.2 4.8 0.00 0.00 0.00 85 1010.5
20260507053003 10 204 0.0 11.3 0.00 0.00 0.00 86 1010.4
20260507052504 10 216 0.0 8.0 0.00 0.00 0.00 87 1010.4
20260507052004 10 204 0.0 3.2 0.00 0.00 0.00 88 1010.4
20260507051503 10 216 0.0 4.8 0.00 0.00 0.00 88 1010.4
20260507051004 10 180 3.2 9.7 0.00 0.00 0.00 88 1010.4
20260507050505 10 222 0.0 9.7 0.00 0.00 0.00 89 1010.4
20260507050008 10 180 0.0 8.0 0.00 0.00 0.00 89 1010.2
20260507045504 10 195 1.6 9.7 0.00 0.00 0.00 89 1010.2
20260507045005 10 174 3.2 9.7 0.00 0.00 0.00 89 1010.2
20260507044502 10 162 4.8 6.4 0.00 0.00 0.00 90 1010.2
20260507044002 10 156 4.8 12.9 0.00 0.00 0.00 90 1010.1
20260507043505 10 201 4.8 8.0 0.00 0.00 0.00 90 1010.0
20260507043005 10 192 8.0 8.0 0.00 0.00 0.00 90 1009.9
20260507042503 10 186 1.6 3.2 0.00 0.00 0.00 90 1010.0
20260507042004 10 192 1.6 6.4 0.00 0.00 0.00 91 1009.8
20260507041502 10 174 6.4 8.0 0.00 0.00 0.00 91 1009.6
20260507041004 10 198 3.2 4.8 0.00 0.00 0.00 91 1009.6
20260507040511 10 198 1.6 6.4 0.00 0.00 0.00 91 1009.7
20260507040002 10 192 0.0 4.8 0.00 0.00 0.00 91 1009.6
20260507035509 10 156 4.8 9.7 0.00 0.00 0.00 91 1009.5
20260507035007 10 168 8.0 9.7 0.00 0.00 0.00 91 1009.3
20260507034503 10 180 1.6 6.4 0.00 0.00 0.00 91 1009.3
20260507034007 10 168 0.0 4.8 0.00 0.00 0.00 91 1009.3
20260507033502 10 144 1.6 8.0 0.00 0.00 0.00 91 1009.2
20260507033004 10 174 3.2 6.4 0.00 0.00 0.00 91 1009.1
20260507032504 10 180 0.0 11.3 0.00 0.00 0.00 91 1008.9
20260507032003 10 166 4.8 4.8 0.00 0.00 0.00 90 1009.0
20260507031503 10 172 4.8 4.8 0.00 0.00 0.00 91 1008.8
20260507031004 10 155 1.6 8.0 0.00 0.00 0.00 90 1008.8
20260507030509 10 150 1.6 11.3 0.00 0.00 0.00 90 1008.8
20260507030005 10 162 4.8 6.4 0.00 0.00 0.00 90 1008.8
20260507025003 10 224 4.8 4.8 0.00 0.00 0.00 91 1008.7
20260507024508 10 224 0.0 1.6 0.00 0.00 0.00 90 1008.7
20260507024002 11 224 0.0 1.6 0.00 0.00 0.00 89 1008.6
20260507023509 11 224 0.0 4.8 0.00 0.00 0.00 90 1008.7
20260507023004 11 213 0.0 3.2 0.00 0.00 0.00 89 1008.7
20260507022510 11 216 0.0 3.2 0.00 0.00 0.00 89 1008.7
20260507022003 11 218 0.0 3.2 0.00 0.00 0.00 89 1008.6
20260507021002 11 210 0.0 3.2 0.00 0.00 0.00 90 1008.5
20260507020512 11 201 1.6 1.6 0.00 0.00 0.00 90 1008.4
20260507020002 11 192 0.0 3.2 0.00 0.00 0.00 91 1008.4
20260507015503 11 192 0.0 3.2 0.00 0.00 0.00 90 1008.2
20260507015009 11 178 3.2 3.2 0.00 0.00 0.00 91 1008.3
20260507014503 11 178 1.6 1.6 0.00 0.00 0.00 91 1008.3
20260507014003 11 174 0.0 1.6 0.00 0.00 0.00 91 1008.2
20260507013503 11 174 0.0 1.6 0.00 0.00 0.00 91 1008.1
20260507013002 11 168 0.0 3.2 0.00 0.00 0.00 91 1008.1
20260507012506 11 198 0.0 3.2 0.00 0.00 0.00 91 1007.9
20260507012003 12 198 0.0 1.6 0.00 0.00 0.00 91 1007.9
20260507011502 12 198 0.0 4.8 0.00 0.00 0.00 90 1007.8
20260507011004 12 198 1.6 3.2 0.00 0.00 0.00 89 1007.8
20260507010506 12 198 8.0 8.0 0.00 0.00 0.00 88 1007.8
20260507010004 12 222 1.6 1.6 0.00 0.00 0.00 88 1007.8
20260507005503 12 222 1.6 4.8 0.00 0.00 0.00 88 1007.8
20260507005002 12 289 1.6 6.4 0.00 0.00 0.00 88 1007.8
20260507004506 12 250 3.2 6.4 0.00 0.00 0.00 89 1007.8
20260507004003 12 244 4.8 8.0 0.00 0.00 0.00 89 1007.8
20260507003507 12 237 1.6 11.3 0.00 0.00 0.00 90 1007.6
20260507003004 12 240 6.4 6.4 0.00 0.00 0.00 90 1007.6
20260507002508 12 240 0.0 6.4 0.00 0.00 0.00 90 1007.5
20260507002004 12 228 3.2 4.8 0.00 0.00 0.00 91 1007.5
20260507001506 12 234 0.0 8.0 0.00 0.00 0.00 91 1007.5
20260507001003 11 219 1.6 4.8 0.00 0.00 0.00 92 1007.5
20260507000502 11 219 1.6 3.2 0.00 0.00 0.00 93 1007.6
20260507000003 11 219 0.0 0.0 0.00 0.00 0.00 93 1007.5
20260506235503 11 219 0.0 0.0 0.00 0.00 0.00 93 1007.5
20260506235003 12 219 0.0 1.6 0.00 0.00 0.00 93 1007.6
20260506234503 12 219 1.6 4.8 0.00 0.00 0.00 93 1007.4
20260506234003 12 219 0.0 3.2 0.00 0.00 0.00 93 1007.4
20260506233504 12 219 0.0 3.2 0.00 0.00 0.00 93 1007.5
20260506233007 12 219 0.0 0.0 0.00 0.00 0.00 93 1007.4
20260506232502 12 219 0.0 1.6 0.00 0.00 0.00 94 1007.5
20260506232009 12 219 0.0 0.0 0.00 0.00 0.00 94 1007.4
20260506231506 12 219 0.0 3.2 0.00 0.00 0.00 94 1007.4
20260506231007 12 219 0.0 4.8 0.00 0.00 0.00 94 1007.4
20260506230506 12 219 4.8 6.4 0.00 0.00 0.00 94 1007.3
20260506230008 12 207 3.2 4.8 0.00 0.00 0.00 93 1007.2
20260506225502 12 233 1.6 6.4 0.00 0.00 0.00 94 1007.2
20260506225008 12 253 8.0 9.7 0.00 0.00 0.00 94 1007.2
20260506224502 12 219 0.0 3.2 0.00 0.00 0.00 94 1007.0
20260506224004 12 240 6.4 9.7 0.00 0.00 0.00 94 1007.0
20260506223508 12 228 4.8 9.7 0.00 0.00 0.00 93 1006.8
20260506223003 12 210 4.8 6.4 0.00 0.00 0.00 93 1006.8
20260506222509 12 252 4.8 9.7 0.00 0.00 0.00 93 1006.7
20260506222002 12 174 3.2 6.4 0.00 0.00 0.00 92 1006.7
20260506221504 12 132 0.0 6.4 0.00 0.00 0.00 92 1006.5
20260506221008 12 186 1.6 1.6 0.00 0.00 0.00 93 1006.5
20260506220510 12 186 0.0 4.8 0.00 0.00 0.00 93 1006.3
20260506220010 12 238 1.6 4.8 0.00 0.00 0.00 94 1006.0
20260506215510 12 246 1.6 4.8 0.00 0.00 0.00 94 1006.0
20260506215004 12 252 0.0 11.3 0.00 0.00 0.00 94 1006.0
20260506214002 12 232 3.2 9.7 0.00 0.00 0.00 93 1006.0
20260506213508 12 222 4.8 9.7 0.00 0.00 0.00 93 1005.9
20260506213003 12 223 0.0 6.4 0.00 0.00 0.00 93 1005.8
20260506212509 12 210 0.0 11.3 0.00 0.00 0.00 93 1005.8
20260506212004 13 204 0.0 9.7 0.00 0.00 0.00 93 1005.6
20260506211002 12 341 0.0 6.4 0.00 0.00 0.00 92 1004.8
20260506210509 12 341 0.0 9.7 0.00 0.00 0.00 93 1004.6
20260506210003 12 340 8.0 14.5 0.00 0.00 0.00 93 1004.6
20260506205507 12 356 4.8 6.4 0.00 0.00 0.00 93 1004.8
20260506205002 12 307 0.0 6.4 0.00 0.00 0.00 92 1005.1
20260506204509 12 251 1.6 4.8 0.00 0.00 0.00 92 1005.0
20260506204002 12 266 3.2 11.3 0.00 0.00 0.00 92 1004.9
20260506203505 12 286 0.0 11.3 0.00 0.00 0.00 92 1005.1
20260506203002 12 277 1.6 14.5 0.00 0.00 0.00 91 1005.2
20260506202505 12 264 9.7 24.1 0.00 0.00 0.00 91 1005.2
20260506202002 13 276 1.6 22.5 0.00 0.00 0.00 91 1005.1
20260506201503 13 240 8.0 16.1 0.00 0.00 0.00 91 1005.1
20260506201004 13 282 17.7 19.3 0.00 0.00 0.00 92 1005.0
20260506200504 13 239 24.1 29.0 0.00 0.00 0.00 92 1004.8
20260506200004 13 288 17.7 20.9 0.00 0.00 0.00 90 1004.5
20260506195510 13 272 8.0 22.5 0.00 0.00 0.00 89 1004.6
20260506195007 14 300 8.0 22.5 0.00 0.00 0.00 87 1004.5
20260506194504 15 258 12.9 14.5 0.00 0.00 0.00 84 1004.3
20260506193502 16 162 9.7 22.5 0.00 0.00 0.00 77 1003.4
20260506193009 16 245 12.9 20.9 0.00 0.00 0.00 71 1002.6
20260506192502 17 168 0.0 11.3 0.00 0.00 0.00 60 1002.4
20260506192005 16 155 9.7 11.3 0.00 0.00 0.00 59 1002.0
20260506191511 16 116 0.0 0.0 0.00 0.00 0.00 63 1001.8
20260506191003 15 116 0.0 0.0 0.00 0.00 0.00 62 1001.8
20260506190506 15 116 0.0 0.0 0.00 0.00 0.00 69 1001.8
20260506190004 15 116 0.0 0.0 0.00 0.00 0.00 68 1001.7
20260506185508 15 116 0.0 0.0 0.00 0.00 0.00 68 1001.7
20260506185003 15 116 0.0 0.0 0.00 0.00 0.00 67 1001.6
20260506184003 15 116 0.0 0.0 0.00 0.00 0.00 67 1001.4
20260506183508 15 116 0.0 0.0 0.00 0.00 0.00 68 1001.3
20260506183003 16 116 0.0 0.0 0.00 0.00 0.00 68 1001.3
20260506182510 16 116 0.0 0.0 0.00 0.00 0.00 69 1001.2
20260506182002 16 116 0.0 0.0 0.00 0.00 0.00 66 1001.0
20260506181511 16 116 0.0 0.0 0.00 0.00 0.00 64 1000.9
20260506181003 16 116 0.0 0.0 0.00 0.00 0.00 68 1000.8
20260506180504 17 116 0.0 0.0 0.00 0.00 0.00 65 1000.6
20260506180005 17 116 0.0 0.0 0.00 0.00 0.00 66 1000.6
20260506175509 18 116 0.0 0.0 0.00 0.00 0.00 56 1000.4
20260506175005 18 116 0.0 0.0 0.00 0.00 0.00 54 1000.3
20260506174502 19 116 0.0 0.0 0.00 0.00 0.00 52 1000.2
20260506174009 19 116 0.0 1.6 0.00 0.00 0.00 51 1000.2
20260506173503 19 116 0.0 0.0 0.00 0.00 0.00 51 1000.2
20260506173004 20 116 0.0 1.6 0.00 0.00 0.00 52 1000.0
20260506172509 20 116 0.0 1.6 0.00 0.00 0.00 51 1000.0
20260506172002 20 116 0.0 1.6 0.00 0.00 0.00 50 1000.1
20260506171513 20 116 0.0 3.2 0.00 0.00 0.00 50 1000.0
20260506171002 20 117 3.2 4.8 0.00 0.00 0.00 49 1000.0
20260506170504 20 134 0.0 0.0 0.00 0.00 0.00 49 999.9
20260506170004 20 134 0.0 1.6 0.00 0.00 0.00 49 1000.1
20260506165504 21 134 0.0 1.6 0.00 0.00 0.00 48 1000.0
20260506165003 21 134 1.6 9.7 0.00 0.00 0.00 48 1000.2
20260506164504 21 48 0.0 6.4 0.00 0.00 0.00 49 1000.2
20260506164003 21 165 3.2 8.0 0.00 0.00 0.00 47 1000.2
20260506163503 21 128 9.7 11.3 0.00 0.00 0.00 47 1000.2
20260506163003 22 138 6.4 11.3 0.00 0.00 0.00 47 1000.1
20260506162504 21 155 8.0 14.5 0.00 0.00 0.00 46 1000.1
20260506162005 21 92 3.2 11.3 0.00 0.00 0.00 47 1000.3
20260506161502 21 115 0.0 17.7 0.00 0.00 0.00 47 1000.4
20260506161004 21 180 14.5 16.1 0.00 0.00 0.00 47 1000.4
20260506160504 21 138 3.2 16.1 0.00 0.00 0.00 48 1000.5
20260506160004 21 148 11.3 12.9 0.00 0.00 0.00 47 1000.6
20260506155503 21 126 0.0 11.3 0.00 0.00 0.00 47 1000.5
20260506155004 22 121 3.2 12.9 0.00 0.00 0.00 47 1000.6
20260506154506 21 110 3.2 14.5 0.00 0.00 0.00 48 1000.6
20260506154004 22 78 4.8 16.1 0.00 0.00 0.00 48 1000.6
20260506153504 22 152 8.0 17.7 0.00 0.00 0.00 45 1000.5
20260506153004 22 154 11.3 14.5 0.00 0.00 0.00 48 1000.7
20260506152505 22 77 4.8 12.9 0.00 0.00 0.00 48 1000.8
20260506152004 21 49 11.3 14.5 0.00 0.00 0.00 49 1000.9